BEIDOU-3 G1

Last updated on Aug. 3, 2020, 5:32 a.m. UTC

1 43683U 18085A   20215.52414345 -.00000296  00000-0  00000-0 0  9992
2 43683   1.6706 253.3972 0003356 340.0169  46.7875  1.00273922  6567
UTC
Height (km)
Latitude
Longitude
Inclination
Orbital Period
UTC large
Height (km)
Speed (km/s)
/
Latitude / Longitude
Inclination (degrees)
Orbital Period (minutes)
Azimuth
Elevation
Range (km)
Doppler Factor
iOS Compass Heading
iOS Angle

Next 30 passes for location: Hong Kong

Rise time Rise Azimuth (degrees) Set time Set Azimuth (degrees) Duration Max altitude (degrees)

No matching passes for this satellites